SHT18M EGLL-EGPD

Flight info

Callsign SHT18M
Flight time 1h 3m
Altitude 38000
Route ULTIB T420 AKUPA UY250 KEFTE DCT AGPED/N0443F390 DCT MADAD/N0358F240 P18 EPCAN
Aircraft A20N/M-SDE2E3FGHIRWXY/LB1

Departure

Time 2026-05-08 07:40
Airport London Heathrow Airport (EGLL)

Arrival

Time 2026-05-08 08:43
Airport Aberdeen International Airport (EGPD)
Time Latitude Longitude Altitude Speed Heading
2026-05-08 07:12 51.47231 -0.48578 86 ft 0 kts 269°
2026-05-08 07:31 51.47231 -0.48577 84 ft 2 kts 270°
2026-05-08 07:31 51.47233 -0.48538 88 ft 4 kts 261°
2026-05-08 07:32 51.47240 -0.48497 88 ft 4 kts 236°
2026-05-08 07:32 51.47256 -0.48475 87 ft 1 kts 180°
2026-05-08 07:32 51.47257 -0.48475 87 ft 1 kts 180°
2026-05-08 07:35 51.47251 -0.48475 88 ft 2 kts 180°
2026-05-08 07:35 51.47235 -0.48475 88 ft 5 kts 180°
2026-05-08 07:35 51.47191 -0.48475 84 ft 8 kts 180°
2026-05-08 07:35 51.47102 -0.48474 84 ft 9 kts 180°
2026-05-08 07:36 51.47033 -0.48475 84 ft 10 kts 180°
2026-05-08 07:36 51.46984 -0.48474 84 ft 11 kts 179°
2026-05-08 07:36 51.46935 -0.48472 87 ft 8 kts 179°
2026-05-08 07:36 51.46869 -0.48471 88 ft 11 kts 180°
2026-05-08 07:37 51.46785 -0.48471 86 ft 14 kts 180°
2026-05-08 07:37 51.46696 -0.48471 85 ft 14 kts 179°
2026-05-08 07:37 51.46624 -0.48469 89 ft 9 kts 179°
2026-05-08 07:37 51.46554 -0.48468 89 ft 12 kts 180°
2026-05-08 07:38 51.46487 -0.48445 87 ft 11 kts 132°
2026-05-08 07:38 51.46479 -0.48358 87 ft 0 kts 89°
2026-05-08 07:39 51.46480 -0.48114 84 ft 55 kts 89°
2026-05-08 07:39 51.46484 -0.47154 87 ft 113 kts 90°
2026-05-08 07:39 51.46488 -0.45646 84 ft 156 kts 89°
2026-05-08 07:40 51.46493 -0.43918 607 ft 152 kts 89°
2026-05-08 07:40 51.46602 -0.42249 1244 ft 153 kts 75°
2026-05-08 07:40 51.47088 -0.40630 1577 ft 175 kts 57°
2026-05-08 07:40 51.47959 -0.39139 1953 ft 191 kts 47°
2026-05-08 07:41 51.48911 -0.37569 2308 ft 209 kts 51°
2026-05-08 07:41 51.49907 -0.35736 2665 ft 230 kts 52°
2026-05-08 07:41 51.50985 -0.33693 3177 ft 252 kts 52°
2026-05-08 07:41 51.51998 -0.31325 3956 ft 261 kts 65°
2026-05-08 07:42 51.52634 -0.28807 4883 ft 263 kts 75°
2026-05-08 07:42 51.53143 -0.26102 5549 ft 269 kts 74°
2026-05-08 07:42 51.53149 -0.26071 5556 ft 269 kts 74°
2026-05-08 07:42 51.53733 -0.23184 5852 ft 271 kts 73°
2026-05-08 07:43 51.54340 -0.20346 6187 ft 276 kts 70°
2026-05-08 07:43 51.55397 -0.17883 7030 ft 280 kts 42°
2026-05-08 07:43 51.57101 -0.16327 7947 ft 286 kts 15°
2026-05-08 07:43 51.59079 -0.16106 8853 ft 288 kts 348°
2026-05-08 07:44 51.60858 -0.17201 9713 ft 287 kts 323°
2026-05-08 07:44 51.62234 -0.19484 10507 ft 289 kts 299°
2026-05-08 07:44 51.63275 -0.22377 10837 ft 312 kts 299°
2026-05-08 07:44 51.64622 -0.25289 11185 ft 334 kts 310°
2026-05-08 07:45 51.66358 -0.27853 11928 ft 342 kts 319°
2026-05-08 07:45 51.68304 -0.30098 12751 ft 347 kts 324°
2026-05-08 07:45 51.70336 -0.32157 13548 ft 352 kts 327°
2026-05-08 07:45 51.72425 -0.34164 14281 ft 356 kts 327°
2026-05-08 07:46 51.74575 -0.36206 14975 ft 361 kts 327°
2026-05-08 07:46 51.76726 -0.38258 15649 ft 366 kts 327°
2026-05-08 07:46 51.78928 -0.40373 16336 ft 370 kts 327°
2026-05-08 07:46 51.81075 -0.42445 16995 ft 374 kts 327°
2026-05-08 07:47 51.83299 -0.44599 17647 ft 379 kts 327°
2026-05-08 07:47 51.85494 -0.46729 18310 ft 383 kts 327°
2026-05-08 07:47 51.87790 -0.48959 18921 ft 386 kts 327°
2026-05-08 07:47 51.89992 -0.51100 19526 ft 388 kts 327°
2026-05-08 07:48 51.92305 -0.53353 20141 ft 391 kts 327°
2026-05-08 07:48 51.94601 -0.55593 20740 ft 394 kts 327°
2026-05-08 07:48 51.96961 -0.57898 21352 ft 397 kts 327°
2026-05-08 07:48 51.99327 -0.60211 21943 ft 400 kts 327°
2026-05-08 07:49 52.01723 -0.62556 22545 ft 402 kts 327°
2026-05-08 07:49 52.04129 -0.64913 23140 ft 405 kts 327°
2026-05-08 07:49 52.06550 -0.67289 23731 ft 408 kts 327°
2026-05-08 07:49 52.08996 -0.69692 24217 ft 411 kts 327°
2026-05-08 07:50 52.11441 -0.72097 24713 ft 413 kts 327°
2026-05-08 07:50 52.13882 -0.74502 25170 ft 416 kts 327°
2026-05-08 07:50 52.16364 -0.76950 25630 ft 418 kts 327°
2026-05-08 07:50 52.18863 -0.79419 26079 ft 421 kts 327°
2026-05-08 07:51 52.21375 -0.81903 26521 ft 423 kts 327°
2026-05-08 07:51 52.23904 -0.84408 26955 ft 426 kts 327°
2026-05-08 07:51 52.26450 -0.86933 27372 ft 428 kts 327°
2026-05-08 07:51 52.28969 -0.89434 27790 ft 430 kts 327°
2026-05-08 07:52 52.31537 -0.91987 28185 ft 433 kts 327°
2026-05-08 07:52 52.34117 -0.94557 28579 ft 435 kts 327°
2026-05-08 07:52 52.36712 -0.97144 28946 ft 437 kts 327°
2026-05-08 07:52 52.39322 -0.99752 29321 ft 439 kts 327°
2026-05-08 07:53 52.41906 -1.02338 30083 ft 432 kts 327°
2026-05-08 07:53 52.44477 -1.04911 30392 ft 434 kts 328°
2026-05-08 07:53 52.47175 -1.07071 30646 ft 439 kts 338°
2026-05-08 07:53 52.50141 -1.08386 30936 ft 443 kts 349°
2026-05-08 07:54 52.53223 -1.08759 31253 ft 447 kts 360°
2026-05-08 07:54 52.56333 -1.08523 31641 ft 447 kts
2026-05-08 07:54 52.59445 -1.08289 32039 ft 446 kts
2026-05-08 07:54 52.62515 -1.08064 32434 ft 445 kts
2026-05-08 07:55 52.65610 -1.07835 32831 ft 444 kts 360°
2026-05-08 07:55 52.68675 -1.07607 33215 ft 443 kts 360°
2026-05-08 07:55 52.71731 -1.07394 33582 ft 442 kts 358°
2026-05-08 07:55 52.74784 -1.07591 33985 ft 438 kts 351°
2026-05-08 07:56 52.77795 -1.08335 34294 ft 436 kts 346°
2026-05-08 07:56 52.80443 -1.09157 34495 ft 437 kts 347°
2026-05-08 07:56 52.83382 -1.10040 34725 ft 437 kts 347°
2026-05-08 07:56 52.86367 -1.10933 34953 ft 438 kts 347°
2026-05-08 07:57 52.89372 -1.11838 35180 ft 439 kts 347°
2026-05-08 07:57 52.92380 -1.12749 35403 ft 439 kts 347°
2026-05-08 07:57 52.95394 -1.13668 35614 ft 440 kts 347°
2026-05-08 07:57 52.98407 -1.14589 35826 ft 440 kts 347°
2026-05-08 07:58 53.01411 -1.15509 36024 ft 441 kts 347°
2026-05-08 07:58 53.04392 -1.16423 36187 ft 442 kts 347°
2026-05-08 07:58 53.07402 -1.17347 36389 ft 443 kts 347°
2026-05-08 07:58 53.10414 -1.18273 36581 ft 443 kts 347°
2026-05-08 07:59 53.13425 -1.19200 36764 ft 443 kts 347°
2026-05-08 07:59 53.16462 -1.20136 36947 ft 444 kts 347°
2026-05-08 07:59 53.19505 -1.21076 37127 ft 444 kts 347°
2026-05-08 07:59 53.22545 -1.22016 37297 ft 445 kts 347°
2026-05-08 08:00 53.25589 -1.22959 37486 ft 445 kts 346°
2026-05-08 08:00 53.28639 -1.23905 37617 ft 446 kts 346°
2026-05-08 08:00 53.31684 -1.24850 37766 ft 447 kts 346°
2026-05-08 08:00 53.34667 -1.25778 37926 ft 447 kts 346°
2026-05-08 08:01 53.37765 -1.26742 38066 ft 447 kts 347°
2026-05-08 08:01 53.43911 -1.28258 38077 ft 449 kts 354°
2026-05-08 08:02 53.50128 -1.28988 38077 ft 449 kts 353°
2026-05-08 08:02 53.56267 -1.30293 38077 ft 445 kts 343°
2026-05-08 08:03 53.62061 -1.33745 38076 ft 441 kts 331°
2026-05-08 08:03 53.67357 -1.38890 38078 ft 439 kts 326°
2026-05-08 08:04 53.72584 -1.44152 38082 ft 439 kts 326°
2026-05-08 08:04 53.77845 -1.49488 38080 ft 440 kts 326°
2026-05-08 08:05 53.83065 -1.54818 38082 ft 440 kts 326°
2026-05-08 08:05 53.88311 -1.60194 38075 ft 438 kts 326°
2026-05-08 08:06 53.93506 -1.65533 38073 ft 438 kts 326°
2026-05-08 08:06 53.98791 -1.70739 38088 ft 440 kts 331°
2026-05-08 08:07 54.04559 -1.74271 38075 ft 447 kts 343°
2026-05-08 08:07 54.10724 -1.75855 38076 ft 451 kts 351°
2026-05-08 08:08 54.16963 -1.77022 38077 ft 450 kts 350°
2026-05-08 08:08 54.23160 -1.78181 38077 ft 450 kts 351°
2026-05-08 08:09 54.29403 -1.79334 38067 ft 451 kts 350°
2026-05-08 08:09 54.35657 -1.80489 38069 ft 451 kts 350°
2026-05-08 08:10 54.41850 -1.81636 38068 ft 451 kts 350°
2026-05-08 08:10 54.48111 -1.82799 38067 ft 452 kts 350°
2026-05-08 08:11 54.54372 -1.83966 38068 ft 452 kts 350°
2026-05-08 08:11 54.60638 -1.85138 38072 ft 453 kts 350°
2026-05-08 08:12 54.66868 -1.86306 38071 ft 453 kts 350°
2026-05-08 08:12 54.73101 -1.87479 38068 ft 453 kts 350°
2026-05-08 08:13 54.79386 -1.88664 38066 ft 455 kts 350°
2026-05-08 08:13 54.85685 -1.89856 38070 ft 456 kts 350°
2026-05-08 08:14 54.91836 -1.91025 38072 ft 456 kts 350°
2026-05-08 08:14 54.98134 -1.92225 38076 ft 456 kts 350°
2026-05-08 08:15 55.04466 -1.93435 38064 ft 457 kts 350°
2026-05-08 08:15 55.10808 -1.94370 38067 ft 460 kts 356°
2026-05-08 08:16 55.17171 -1.93528 38065 ft 465 kts
2026-05-08 08:16 55.23567 -1.91824 38067 ft 465 kts
2026-05-08 08:17 55.29977 -1.90149 38056 ft 466 kts
2026-05-08 08:17 55.36361 -1.88441 38060 ft 467 kts
2026-05-08 08:18 55.42764 -1.86711 38051 ft 467 kts
2026-05-08 08:18 55.49156 -1.84978 38055 ft 468 kts
2026-05-08 08:19 55.55606 -1.83223 38056 ft 469 kts
2026-05-08 08:19 55.62025 -1.81471 38058 ft 469 kts
2026-05-08 08:20 55.68460 -1.79709 38057 ft 469 kts
2026-05-08 08:20 55.71682 -1.78824 37892 ft 467 kts
2026-05-08 08:20 55.74897 -1.77939 37365 ft 467 kts
2026-05-08 08:20 55.78122 -1.77051 36636 ft 469 kts
2026-05-08 08:21 55.81347 -1.76164 35696 ft 475 kts
2026-05-08 08:21 55.84632 -1.75258 34818 ft 480 kts
2026-05-08 08:21 55.87948 -1.74401 33975 ft 480 kts
2026-05-08 08:21 55.91277 -1.74178 33006 ft 478 kts 354°
2026-05-08 08:22 55.94579 -1.74702 31999 ft 476 kts 347°
2026-05-08 08:22 55.97779 -1.75827 31015 ft 477 kts 344°
2026-05-08 08:22 56.01037 -1.77027 30029 ft 480 kts 344°
2026-05-08 08:22 56.04316 -1.78220 28966 ft 481 kts 344°
2026-05-08 08:23 56.07579 -1.79410 28210 ft 476 kts 344°
2026-05-08 08:23 56.10746 -1.80572 27502 ft 471 kts 344°
2026-05-08 08:23 56.13940 -1.81752 26777 ft 467 kts 344°
2026-05-08 08:23 56.17116 -1.82932 26061 ft 463 kts 344°
2026-05-08 08:24 56.20259 -1.84105 25387 ft 459 kts 344°
2026-05-08 08:24 56.22323 -1.84876 24944 ft 457 kts 344°
2026-05-08 08:24 56.25415 -1.86034 24284 ft 453 kts 344°
2026-05-08 08:24 56.28481 -1.87184 23636 ft 450 kts 345°
2026-05-08 08:25 56.31493 -1.88314 22877 ft 447 kts 344°
2026-05-08 08:25 56.34526 -1.89453 22225 ft 442 kts 344°
2026-05-08 08:25 56.37369 -1.90523 21604 ft 437 kts 344°
2026-05-08 08:25 56.40334 -1.91640 20942 ft 433 kts 344°
2026-05-08 08:26 56.43227 -1.92732 20311 ft 428 kts 344°
2026-05-08 08:26 56.46120 -1.93826 19699 ft 424 kts 344°
2026-05-08 08:26 56.48978 -1.94909 19089 ft 420 kts 344°
2026-05-08 08:26 56.51758 -1.95963 18496 ft 416 kts 344°
2026-05-08 08:27 56.54539 -1.97020 17850 ft 412 kts 344°
2026-05-08 08:27 56.57265 -1.98057 17266 ft 407 kts 344°
2026-05-08 08:27 56.60011 -1.99102 16445 ft 400 kts 344°
2026-05-08 08:27 56.62709 -2.00133 15520 ft 395 kts 344°
2026-05-08 08:28 56.65374 -2.01154 14641 ft 390 kts 345°
2026-05-08 08:28 56.68002 -2.02162 13790 ft 385 kts 345°
2026-05-08 08:28 56.70578 -2.03152 12860 ft 380 kts 345°
2026-05-08 08:28 56.73101 -2.04124 11951 ft 376 kts 345°
2026-05-08 08:29 56.75606 -2.05089 11076 ft 372 kts 345°
2026-05-08 08:29 56.78094 -2.06047 10417 ft 363 kts 345°
2026-05-08 08:29 56.80504 -2.06969 10175 ft 342 kts 345°
2026-05-08 08:29 56.82768 -2.07835 9973 ft 323 kts 345°
2026-05-08 08:30 56.84877 -2.08645 9733 ft 306 kts 344°
2026-05-08 08:30 56.86945 -2.09448 9161 ft 302 kts 344°
2026-05-08 08:30 56.90979 -2.11023 8089 ft 299 kts 344°
2026-05-08 08:31 56.92983 -2.11804 7708 ft 296 kts 344°
2026-05-08 08:31 56.94990 -2.12584 7332 ft 294 kts 344°
2026-05-08 08:31 56.96989 -2.13359 6915 ft 293 kts 343°
2026-05-08 08:31 56.98935 -2.14115 6554 ft 291 kts 343°
2026-05-08 08:32 57.00886 -2.14873 6190 ft 289 kts 343°
2026-05-08 08:32 57.02843 -2.15634 5820 ft 287 kts 343°
2026-05-08 08:32 57.04743 -2.16374 5467 ft 285 kts 343°
2026-05-08 08:32 57.06681 -2.17131 5099 ft 284 kts 343°
2026-05-08 08:33 57.08582 -2.17861 4744 ft 282 kts 344°
2026-05-08 08:33 57.10472 -2.18583 4383 ft 280 kts 343°
2026-05-08 08:33 57.12373 -2.19320 4002 ft 279 kts 343°
2026-05-08 08:33 57.14240 -2.20055 3683 ft 275 kts 343°
2026-05-08 08:34 57.16048 -2.20770 3342 ft 274 kts 343°
2026-05-08 08:34 57.17846 -2.21484 2968 ft 272 kts 343°
2026-05-08 08:34 57.19576 -2.22183 2755 ft 264 kts 343°
2026-05-08 08:34 57.21336 -2.22884 2681 ft 254 kts 343°
2026-05-08 08:35 57.23012 -2.23543 2564 ft 244 kts 343°
2026-05-08 08:35 57.24655 -2.24182 2491 ft 235 kts 343°
2026-05-08 08:35 57.26210 -2.24798 2505 ft 235 kts 343°
2026-05-08 08:35 57.27814 -2.25441 2493 ft 233 kts 343°
2026-05-08 08:36 57.29410 -2.26075 2499 ft 235 kts 343°
2026-05-08 08:36 57.30990 -2.26761 2496 ft 233 kts 344°
2026-05-08 08:36 57.32619 -2.26559 2507 ft 241 kts 18°
2026-05-08 08:36 57.34055 -2.25055 2501 ft 241 kts 32°
2026-05-08 08:37 57.35416 -2.23387 2496 ft 237 kts 31°
2026-05-08 08:37 57.36852 -2.21958 2499 ft 236 kts 11°
2026-05-08 08:37 57.38440 -2.21963 2489 ft 225 kts 337°
2026-05-08 08:37 57.39674 -2.23499 2501 ft 216 kts 303°
2026-05-08 08:38 57.40206 -2.25990 2500 ft 207 kts 268°
2026-05-08 08:38 57.39853 -2.28503 2507 ft 206 kts 235°
2026-05-08 08:38 57.38781 -2.30132 2491 ft 199 kts 201°
2026-05-08 08:38 57.37465 -2.30607 2491 ft 186 kts 192°
2026-05-08 08:39 57.36189 -2.30886 2500 ft 186 kts 182°
2026-05-08 08:39 57.34899 -2.30536 2501 ft 190 kts 169°
2026-05-08 08:39 57.33701 -2.29801 2501 ft 192 kts 164°
2026-05-08 08:39 57.32469 -2.28867 2520 ft 186 kts 163°
2026-05-08 08:40 57.31330 -2.28020 2414 ft 171 kts 164°
2026-05-08 08:40 57.30244 -2.27218 2204 ft 166 kts 164°
2026-05-08 08:40 57.29193 -2.26438 1986 ft 159 kts 164°
2026-05-08 08:40 57.28189 -2.25692 1772 ft 153 kts 163°
2026-05-08 08:41 57.27246 -2.24992 1571 ft 142 kts 164°
2026-05-08 08:41 57.26370 -2.24343 1386 ft 131 kts 165°
2026-05-08 08:41 57.25560 -2.23742 1192 ft 124 kts 164°
2026-05-08 08:41 57.24750 -2.23109 1000 ft 127 kts 164°
2026-05-08 08:42 57.23941 -2.22512 798 ft 126 kts 163°
2026-05-08 08:42 57.23116 -2.21903 689 ft 129 kts 162°
2026-05-08 08:42 57.22316 -2.21309 489 ft 124 kts 167°
2026-05-08 08:42 57.21503 -2.20731 325 ft 127 kts 166°
2026-05-08 08:43 57.20691 -2.20141 217 ft 119 kts 164°
2026-05-08 08:43 57.20039 -2.19671 218 ft 76 kts 158°
2026-05-08 08:43 57.19736 -2.19441 215 ft 25 kts 157°
2026-05-08 08:43 57.19641 -2.19366 211 ft 7 kts 159°
2026-05-08 08:44 57.19584 -2.19327 213 ft 11 kts 159°
2026-05-08 08:44 57.19522 -2.19284 211 ft 6 kts 159°
2026-05-08 08:44 57.19485 -2.19257 212 ft 5 kts 159°
2026-05-08 08:44 57.19441 -2.19255 209 ft 8 kts 202°
2026-05-08 08:45 57.19424 -2.19338 214 ft 7 kts 283°
2026-05-08 08:45 57.19463 -2.19421 215 ft 10 kts 318°
2026-05-08 08:45 57.19527 -2.19520 210 ft 14 kts 319°
2026-05-08 08:45 57.19597 -2.19636 210 ft 13 kts 320°
2026-05-08 08:46 57.19689 -2.19727 212 ft 17 kts 338°
2026-05-08 08:46 57.19793 -2.19803 211 ft 13 kts 338°
2026-05-08 08:46 57.19873 -2.19875 214 ft 13 kts 322°
2026-05-08 08:46 57.19937 -2.19987 206 ft 10 kts 316°
2026-05-08 08:47 57.19987 -2.20062 209 ft 10 kts 330°
2026-05-08 08:47 57.20042 -2.20106 207 ft 7 kts 339°
2026-05-08 08:47 57.20075 -2.20131 204 ft 6 kts 329°
2026-05-08 08:47 57.20078 -2.20182 208 ft 1 kts 243°
2026-05-08 08:48 57.20077 -2.20193 205 ft 1 kts 255°
2026-05-08 08:48 57.20074 -2.20213 208 ft 2 kts 255°
2026-05-08 08:48 57.20071 -2.20226 205 ft 1 kts 248°
2026-05-08 08:48 57.20068 -2.20239 212 ft 1 kts 248°
2026-05-08 08:49 57.20066 -2.20247 208 ft 0 kts 249°
2026-05-08 08:49 57.20065 -2.20253 207 ft 0 kts 248°
2026-05-08 08:50 57.20063 -2.20254 206 ft 0 kts 248°
2026-05-08 08:51 57.20065 -2.20244 208 ft 0 kts 248°
2026-05-08 08:51 57.20068 -2.20234 212 ft 0 kts 248°
2026-05-08 08:52 57.20064 -2.20252 207 ft 0 kts 248°
2026-05-08 08:52 57.20068 -2.20234 212 ft 0 kts 248°